Time,TemperatureF,DewpointF,PressureIn,WindDirection,WindDirectionDegrees,WindSpeedMPH,WindSpeedGustMPH,Humidity,HourlyPrecipIn,Conditions,Clouds,dailyrainin,SoftwareType,DateUTC
2013-09-24 00:14:00,46.0,40.0,-100.00,NW,308,8.0,11.0,80,0.00,,,0.00,,2013-09-24 04:14:00,
2013-09-24 00:24:00,46.0,40.0,-100.00,NNW,337,6.0,10.0,80,0.00,,,0.00,,2013-09-24 04:24:00,
2013-09-24 00:54:00,45.0,40.0,-100.00,NW,318,8.0,12.0,83,0.00,,,0.00,,2013-09-24 04:54:00,
2013-09-24 01:23:00,45.0,40.0,-100.00,WNW,289,6.0,9.0,83,0.00,,,0.00,,2013-09-24 05:23:00,
2013-09-24 01:53:00,44.0,40.0,-100.00,West,278,5.0,9.0,85,0.00,,,0.00,,2013-09-24 05:53:00,
2013-09-24 02:22:00,43.0,39.0,-100.00,West,275,6.0,8.0,87,0.00,,,0.00,,2013-09-24 06:22:00,
2013-09-24 02:52:00,43.0,40.0,-100.00,WNW,285,6.0,9.0,89,0.00,,,0.00,,2013-09-24 06:52:00,
2013-09-24 03:22:00,42.0,39.0,-100.00,WNW,297,7.0,10.0,88,0.00,,,0.00,,2013-09-24 07:22:00,
2013-09-24 03:52:00,43.0,39.0,-100.00,WNW,293,7.0,11.0,87,0.00,,,0.00,,2013-09-24 07:52:00,
2013-09-24 04:23:00,42.0,38.0,-100.00,WNW,284,7.0,11.0,87,0.00,,,0.00,,2013-09-24 08:23:00,
2013-09-24 04:52:00,42.0,38.0,-100.00,West,278,7.0,11.0,87,0.00,,,0.00,,2013-09-24 08:52:00,
2013-09-24 05:21:00,42.0,38.0,-100.00,WNW,288,8.0,11.0,87,0.00,,,0.00,,2013-09-24 09:21:00,
2013-09-24 05:54:00,41.0,38.0,-100.00,West,272,9.0,12.0,89,0.00,,,0.00,,2013-09-24 09:54:00,
2013-09-24 06:23:00,41.0,38.0,-100.00,West,261,7.0,11.0,90,0.00,,,0.00,,2013-09-24 10:23:00,
2013-09-24 06:53:00,41.0,39.0,-100.00,WSW,252,8.0,12.0,92,0.00,,,0.00,,2013-09-24 10:53:00,
2013-09-24 07:22:00,41.0,39.0,-100.00,West,270,9.0,14.0,92,0.00,,,0.00,,2013-09-24 11:22:00,
2013-09-24 07:52:00,41.0,39.0,-100.00,West,272,8.0,11.0,91,0.00,,,0.00,,2013-09-24 11:52:00,
2013-09-24 08:22:00,43.0,40.0,-100.00,West,278,8.0,14.0,89,0.00,,,0.00,,2013-09-24 12:22:00,
2013-09-24 08:52:00,45.0,41.0,-100.00,WSW,256,6.0,11.0,87,0.00,,,0.00,,2013-09-24 12:52:00,
2013-09-24 09:22:00,47.0,42.0,-100.00,WNW,297,8.0,11.0,82,0.00,,,0.00,,2013-09-24 13:22:00,
2013-09-24 09:52:00,49.0,42.0,-100.00,NW,307,6.0,11.0,78,0.00,,,0.00,,2013-09-24 13:52:00,
2013-09-24 10:21:00,50.0,42.0,-100.00,NW,324,7.0,13.0,74,0.00,,,0.00,,2013-09-24 14:21:00,
2013-09-24 10:52:00,52.0,43.0,-100.00,West,266,10.0,15.0,70,0.00,,,0.00,,2013-09-24 14:52:00,
2013-09-24 11:22:00,54.0,43.0,-100.00,WNW,293,8.0,18.0,66,0.00,,,0.00,,2013-09-24 15:22:00,
2013-09-24 11:54:00,55.0,44.0,-100.00,WNW,298,7.0,14.0,67,0.00,,,0.00,,2013-09-24 15:54:00,
2013-09-24 12:23:00,57.0,44.0,-100.00,West,264,9.0,15.0,61,0.00,,,0.00,,2013-09-24 16:23:00,
2013-09-24 12:53:00,59.0,46.0,-100.00,WNW,287,7.0,15.0,62,0.00,,,0.00,,2013-09-24 16:53:00,
2013-09-24 13:23:00,60.0,44.0,-100.00,West,274,10.0,15.0,56,0.00,,,0.00,,2013-09-24 17:23:00,
2013-09-24 13:54:00,61.0,45.0,-100.00,NW,311,6.0,15.0,55,0.00,,,0.00,,2013-09-24 17:54:00,
2013-09-24 14:22:00,62.0,45.0,-100.00,NW,304,8.0,14.0,54,0.00,,,0.00,,2013-09-24 18:22:00,
2013-09-24 14:52:00,63.0,46.0,-100.00,WNW,285,6.0,13.0,53,0.00,,,0.00,,2013-09-24 18:52:00,
2013-09-24 15:22:00,64.0,46.0,-100.00,NNW,345,7.0,12.0,52,0.00,,,0.00,,2013-09-24 19:22:00,
2013-09-24 15:52:00,64.0,45.0,-100.00,NW,305,5.0,13.0,51,0.00,,,0.00,,2013-09-24 19:52:00,
2013-09-24 16:22:00,64.0,44.0,-100.00,North,354,7.0,11.0,48,0.00,,,0.00,,2013-09-24 20:22:00,
2013-09-24 16:52:00,64.0,42.0,-100.00,NW,312,11.0,14.0,44,0.00,,,0.00,,2013-09-24 20:52:00,
2013-09-24 17:22:00,64.0,43.0,-100.00,NW,323,9.0,13.0,46,0.00,,,0.00,,2013-09-24 21:22:00,
2013-09-24 17:54:00,64.0,43.0,-100.00,North,359,7.0,12.0,47,0.00,,,0.00,,2013-09-24 21:54:00,
2013-09-24 18:23:00,62.0,42.0,-100.00,NNW,343,7.0,10.0,47,0.00,,,0.00,,2013-09-24 22:23:00,
2013-09-24 18:54:00,61.0,42.0,-100.00,NW,316,7.0,8.0,49,0.00,,,0.00,,2013-09-24 22:54:00,
2013-09-24 19:22:00,60.0,43.0,-100.00,North,349,5.0,7.0,54,0.00,,,0.00,,2013-09-24 23:22:00,
2013-09-24 19:53:00,59.0,44.0,-100.00,NNE,22,7.0,11.0,57,0.00,,,0.00,,2013-09-24 23:53:00,
2013-09-24 20:22:00,58.0,45.0,-100.00,NE,35,6.0,10.0,61,0.00,,,0.00,,2013-09-25 00:22:00,
2013-09-24 20:52:00,58.0,45.0,-100.00,NNE,16,6.0,9.0,62,0.00,,,0.00,,2013-09-25 00:52:00,
2013-09-24 21:21:00,57.0,47.0,-100.00,East,80,3.0,8.0,68,0.00,,,0.00,,2013-09-25 01:21:00,
2013-09-24 21:52:00,56.0,48.0,-100.00,NE,54,5.0,10.0,74,0.00,,,0.00,,2013-09-25 01:52:00,
2013-09-24 22:22:00,55.0,48.0,-100.00,NNE,33,4.0,7.0,76,0.00,,,0.00,,2013-09-25 02:22:00,
2013-09-24 22:52:00,54.0,47.0,-100.00,NNW,332,4.0,6.0,77,0.00,,,0.00,,2013-09-25 02:52:00,
2013-09-24 23:23:00,54.0,46.0,-100.00,NNW,329,5.0,9.0,74,0.00,,,0.00,,2013-09-25 03:23:00,
2013-09-24 23:55:00,53.0,45.0,-100.00,NNW,333,6.0,7.0,74,0.00,,,0.00,,2013-09-25 03:55:00,